Lancaster, PA

3:41 PM EST on November 19, 2017 (GMT -0500)
Lancaster

Weather History for KLNS - January, 2011

Change the Weather History Date:

Monday, January 31, 2011

  Actual Average Record
Temperature  
Mean Temperature 20 °F -  
Max Temperature 27 °F 39 °F 63 °F (2012)
Min Temperature 12 °F 22 °F 9 °F (1977)
Degree Days  
Heating Degree Days 46    
Moisture  
Dew Point 10 °F    
Average Humidity 63    
Maximum Humidity 84    
Minimum Humidity 39    
Precipitation  
Precipitation 0.01 in - - ()
Sea Level Pressure  
Sea Level Pressure 30.43 in    
Wind  
Wind Speed 3 mph (ENE)    
Max Wind Speed 10 mph    
Max Gust Speed -    
Visibility 9 miles    
Events Snow    
Averages and records for this station are not official NWS values.
T = Trace of Precipitation, MM = Missing Value Source: NWS Daily Summary

Daily Weather History Graph

Daily Weather History Graph

Search for Another Location

Airport or City:

Trip Planner

Search our weather history database for the weather conditions in past years. The results will help you decide how hot, cold, wet, or windy it might be!

Date:

Astronomy

Jan. 31, 2011 Rise Set
Actual Time 7:15 AM EST 5:22 PM EST
Civil Twilight 6:46 AM EST 5:51 PM EST
Nautical Twilight 6:13 AM EST 6:23 PM EST
Astronomical Twilight 5:41 AM EST 6:55 PM EST
Moon 5:32 AM EST (1/31) 3:13 PM EST (1/31)
Length of Visible Light 11h 05m
Length of Day
10h 07m
Waning Crescent, 6% of the Moon is Illuminated
Jan 31
Waning Crescent
Feb 2
New
Feb 11
First Quarter
Feb 18
Full
Feb 24
Last Quarter

Hourly Weather History & Observations

Time (EST) Temp. Windchill Dew Point Humidity Pressure Visibility Wind Dir Wind Speed Gust Speed Precip Events Conditions
12:53 AM 24.1 °F 19.7 °F 15.1 °F 69% 30.33 in 10.0 mi NE 3.5 mph - N/A   Clear
1:53 AM 15.1 °F 9.4 °F 10.0 °F 80% 30.35 in 10.0 mi North 3.5 mph - N/A   Clear
2:53 AM 18.0 °F - 10.9 °F 74% 30.38 in 10.0 mi Calm Calm - N/A   Clear
3:53 AM 12.9 °F - 7.0 °F 77% 30.38 in 10.0 mi Calm Calm - N/A   Clear
4:53 AM 15.1 °F - 9.0 °F 77% 30.40 in 10.0 mi Calm Calm - N/A   Clear
5:53 AM 14.0 °F - 9.0 °F 80% 30.42 in 10.0 mi Calm Calm - N/A   Clear
6:53 AM 12.0 °F - 8.1 °F 84% 30.45 in 8.0 mi Calm Calm - N/A   Clear
7:53 AM 12.9 °F 2.6 °F 7.0 °F 77% 30.47 in 10.0 mi North 6.9 mph - N/A   Clear
8:53 AM 12.0 °F 5.9 °F 6.1 °F 77% 30.50 in 5.0 mi East 3.5 mph - N/A   Haze
9:53 AM 23.0 °F 12.4 °F 10.9 °F 60% 30.50 in 10.0 mi NNE 10.4 mph - 0.00 in   Clear
10:53 AM 24.1 °F - 12.0 °F 60% 30.51 in 10.0 mi Calm Calm - 0.00 in   Clear
11:53 AM 26.1 °F 19.4 °F 8.1 °F 47% 30.50 in 10.0 mi NNE 5.8 mph - N/A   Clear
12:53 PM 27.0 °F 21.6 °F 7.0 °F 43% 30.47 in 10.0 mi North 4.6 mph - N/A   Clear
1:53 PM 26.1 °F 21.9 °F 8.1 °F 47% 30.45 in 10.0 mi ESE 3.5 mph - N/A   Clear
2:53 PM 27.0 °F - 5.0 °F 39% 30.44 in 10.0 mi Calm Calm - N/A   Scattered Clouds
3:53 PM 27.0 °F - 5.0 °F 39% 30.43 in 10.0 mi Calm Calm - N/A   Overcast
4:53 PM 27.0 °F - 8.1 °F 45% 30.43 in 10.0 mi Calm Calm - N/A   Overcast
5:53 PM 27.0 °F - 9.0 °F 47% 30.42 in 10.0 mi Calm Calm - N/A   Overcast
7:53 PM 26.1 °F 20.5 °F 15.1 °F 63% 30.42 in 10.0 mi ESE 4.6 mph - 0.00 in   Overcast
8:53 PM 26.1 °F - 15.1 °F 63% 30.43 in 10.0 mi Calm Calm - 0.00 in   Overcast
9:53 PM 26.1 °F 20.5 °F 16.0 °F 66% 30.42 in 10.0 mi East 4.6 mph - N/A   Overcast
10:53 PM 26.1 °F 19.4 °F 17.1 °F 69% 30.39 in 7.0 mi East 5.8 mph - 0.00 in Snow Light Snow
11:53 PM 26.1 °F 20.5 °F 18.0 °F 71% 30.38 in 6.0 mi ENE 4.6 mph - 0.01 in Snow Light Snow